星链-31857 (STARLINK-31857 )

导读 | 豆包AI

STARLINK-31857是美国太空探索技术公司SpaceX星链互联网卫星星座中的一员,于2024年5月23日发射入轨。星链项目旨在为全球提供高速低延迟宽带互联网服务,该卫星加入星座后,进一步扩容了星链网络的覆盖范围与服务容量,助力全球尤其是偏远地区的互联网接入服务覆盖。

基本信息
目录编号:
59843
目录名称:
STARLINK-31857
国际标识:
2024-097J
轨道中心:
EARTH
卫星名称:
星链-31857
卫星全名:
星链-31857 (STARLINK-31857 )
卫星状态:
在轨 (已飞行708 天)
发射日期:
2024-05-23 UTC
国别 :
美国 (US)
星等 :
--
轨道信息
数据来源 国际轨道数据
星历时间: 2026-04-30T05:43:10+0800
1天前
查看轨道信息
半长轴: 6861.197km
偏心率: 0.0001103
轨道倾角: 43.004°
近地点辐角 270.541°
升交点赤经 344.762°
平近点角 89.532°
近地点: 482.303km
远地点: 483.817km
周期: 94.267分钟
每日圈数: 15.275764
详细信息
固有亮度:
5
最大亮度:
1.5
卫星平台:
Starlink v2.0 mini
覆盖范围:
全球
运营商:
太空探索技术公司
运营商所在国:
美国
制造商(研发单位):
太空探索技术公司
制造商所在国:
美国
使用方式:
暂无
卫星简介
星链(Starlink)计划是由太空探索技术公司(SpaceX)提出的一个巨型低轨卫星互联网星座项目,计划在2019年至2024年间在太空搭建由约1.2万颗卫星组成的“星链”网络,其中1584颗将部署在地球上空550千米处的近地轨道,并从2020年开始工作。该卫星仍在工作。
2D轨道图
3D轨道图
轨道高度分析图
轨道倾角分析图
轨道综合分析图
查看轨道综合分析图